Regional Weather Roundup
Issued by NWS

Home | Current Version | Previous Version | Text Only | Print | Product List | Glossary On
Versions: 1 2 3 4 5 6 7 8 9 10 11 12 13 14 15 16 17 18 19 20 21 22 23 24 25 26 27 28 29 30 31 32 33 34 35 36 37 38 39 40 41 42 43 44 45 46 47 48 49 50
000
ASUS43 KLMK 191710
RWRKY
KENTUCKY REGIONAL WEATHER ROUNDUP
NATIONAL WEATHER SERVICE LOUISVILLE KY
100 PM EDT TUE SEP 19 2017

NOTE "FAIR" INDICATES FEW OR NO CLOUDS BELOW 12,000 FEET
WITH NO SIGNIFICANT WEATHER AND/OR OBSTRUCTIONS TO VISIBILITY.

KYZ001>023-026-027-061>063-070>075-191800-
WESTERN AND SOUTH CENTRAL KENTUCKY

CITY           SKY/WX    TMP DP  RH WIND       PRES   REMARKS
PADUCAH        SUNNY     82  69  64 CALM      29.97F
HENDERSON      CLOUDY    77  71  82 NW6       29.98F
OWENSBORO      CLOUDY    78  70  76 S7        29.98F
HOPKINSVILLE   CLOUDY    78  71  81 N5        29.99F
BOWLING GREEN  CLOUDY    74  70  87 NE8       30.01F
GLASGOW        MOSUNNY   70  70 100 E3        30.03F
$$

KYZ024-025-028>034-038-045-046-053-191800-
NORTH CENTRAL KENTUCKY

CITY           SKY/WX    TMP DP  RH WIND       PRES   REMARKS
LOUISVILLE/SDF CLOUDY    72  68  87 SE8       29.99S
LOUISVILLE/LOU CLOUDY    72  70  93 SE6       30.00S
FORT KNOX      CLOUDY    70  69  98 SE3       29.98F
$$

KYZ035>037-039>044-047>052-055>060-089>105-191800-
NORTHEAST KENTUCKY

CITY           SKY/WX    TMP DP  RH WIND       PRES   REMARKS
LEXINGTON      TSTM      69  66  90 SW9       30.07R VSB 1
COVINGTON      LGT RAIN  68  68 100 SW5       30.01F
FRANKFORT      RAIN      69  67  93 SE6       29.99F FOG
$$

KYZ054-064>069-076>088-106>120-191800-
SOUTHEAST KENTUCKY

CITY           SKY/WX    TMP DP  RH WIND       PRES   REMARKS
JACKSON        MOSUNNY   81  66  60 CALM      30.05F
LONDON         CLOUDY    80  64  58 W6        30.05F
SOMERSET       CLOUDY    79  64  61 W6        30.05S
MIDDLESBORO    MOSUNNY   81  65  57 SW5       30.05F
MONTICELLO     CLOUDY    82  69  64 VRB7G17   30.04F
$$





USA.gov is the U.S. government's official web portal to all federal, state and local government web resources and services.